SCP
0 0 0 0 0 0 0 0 0 0 0 0 0 0 0 0 0 0 0 0 0 0 0 0 0 0 0 0 0 0 0 0 0 0 0 0 0 0 0 0 0 0 0 0 0 0 0 0 0
0 0 0 0 0 0 0 0 0 0 0 0 0 0 0 0 0 0 0 0 0 0 0 0 0 0 0 0 0 0 0 0 0 0 0 0 0 0 0 0 0 0 0 0 0 0 0 0 0
0 0 0 0 0 0 0 0 0 0 0 0 0 0 0 0 0 0 0 0 0 0 0 0 0 0 0 0 0 0 0 0 0 0 0 0 0 0 0 0 0 0 0 0 0 0 0 0 0
0 0 0 0 0 0 0 0 0 0 0 0 0 0 0 0 0 0 0 0 0 0 0 0 0 0 0 0 0 0 0 0 0 0 0 0 0 0 0 0 0 0 0 0 0 0 0 0 0
0 0 0 0 0 0 0 -0 0 0 0 0 0 0 0 0 0 0 0 0 0 0 0 0 0 0 0 0 0 0 0 0 0 0 0 0 0 0 0 0 0 0 0 0 0 0 0 0 0
0 0 0 0 0 0 0 0 0 0 0 0 0 0 0 0 0 0 0 0 0 0 0 0 0 0 0 0 0 0 0 0 0 0 0 0 0 0 0 0 0 0 0 0 0 0 0 0 0
0 0 0 0 0 0 0 0 0 0 0 0 0 0 0 0 0 0 0 0 0 0 0 0 0 0 0 0 0 0 0 0 0 0 0 0 0 0 0 0 0 0 0 0 0 0 0 0 0
0 0 0 0 0 0 0 0 0 0 0 0 0 0 0 0 0 0 0 0 0 0 0 0 0 0 0 0 0 0 0 0 0 0 0 0 0 0 0 0 0 0 0 0 0 0 0 0 0
0 0 0 0 0 0 0 0 0 0 0 0 0 0 0 0 0 0 0 0 0 0 0 0 0 0 0 0 0 0 0 0 0 0 0 0 0 0 0 0 0 0 0 0 0 0 0 0 0
0 0 0 0 0 0 0 0 -0 -0 0 0 0 0 0 0 0 0 0 0 0 0 0 0 0 0 0 0 0 0 0 0 0 0 0 0 0 0 0 0 0 0 0 0 0 0 0 0 0
0 0 0 0 0 0 0 0 -0 0 0 0 0 0 0 0 0 0 0 0 0 0 0 0 0 0 0 0 0 0 0 0 0 0 0 0 0 0 0 0 0 0 0 0 0 0 0 0 0
0 0 0 0 0 0 0 0 0 -0 -0 0 0 0 0 0 0 0 0 0 0 0 0 0 0 0 0 0 0 0 0 0 0 0 0 0 0 0 0 0 0 0 0 0 0 0 0 0 0
0 0 0 0 0 0 0 0 0 0 0 0 0 0 0 0 0 0 0 0 0 0 0 0 0 0 0 0 0 0 0 0 0 0 0 0 0 0 0 0 0 0 0 0 0 0 0 0 0
0 0 0 0 0 0 0 0 0 0 0 0 0 0 0 0 0 0 0 0 0 0 0 0 0 0 0 0 0 0 0 0 0 0 0 0 0 0 0 0 0 0 0 0 0 0 0 0 0
0 0 0 0 0 0 0 0 0 0 0 0 0 0 0 0 0 0 0 0 0 0 0 0 0 0 0 0 0 0 0 0 0 0 0 0 0 0 0 0 0 0 0 0 0 0 0 0 0
0 0 0 0 0 0 0 0 0 0 0 0 0 0 0 0 0 0 0 0 0 0 0 0 0 0 0 0 0 0 0 0 0 0 0 0 0 0 0 0 0 0 0 0 0 0 0 0 0
0 0 0 0 0 0 0 0 0 0 0 0 0 0 0 0 0 0 0 0 0 0 0 0 0 0 0 0 0 0 0 0 0 0 0 0 0 0 0 0 0 0 0 0 0 0 0 0 0
0 0 0 0 0 0 0 0 0 0 0 0 0 0 0 0 0 0 0 0 0 0 0 0 0 0 0 0 0 0 0 0 0 0 0 0 0 0 0 0 0 0 0 0 0 0 0 0 0
0 0 0 0 0 0 0 0 0 0 0 0 0 0 0 0 0 0 0 0 0 0 0 0 0 0 0 0 0 0 0 0 0 0 0 0 0 0 0 0 0 0 0 0 0 0 0 0 0
0 0 0 0 0 0 0 0 0 0 0 0 0 0 0 0 0 0 0 0 0 0 0 0 0 0 0 0 0 0 0 0 0 0 0 0 0 0 0 0 0 0 0 0 0 0 0 0 0
0 0 0 0 0 0 0 0 0 0 0 0 0 0 0 0 0 0 0 0 0 0 0 0 0 0 0 0 0 0 0 0 0 0 0 0 0 0 0 0 0 0 0 0 0 0 0 0 0
0 0 0 0 0 0 0 0 0 0 0 0 0 0 0 0 0 0 0 0 0 0 0 0 0 0 0 0 0 0 0 0 0 0 0 0 0 0 0 0 0 0 0 0 0 0 0 0 0
0 0 0 0 0 0 0 0 0 0 0 0 0 0 0 0 0 0 0 0 0 0 0 0 0 0 0 0 0 0 0 0 0 0 0 0 0 0 0 0 0 0 0 0 0 0 0 0 0
0 0 0 0 0 0 0 0 0 0 0 0 0 0 0 0 0 0 0 0 0 0 0 0 0 0 0 0 0 0 0 0 0 0 0 0 0 0 0 0 0 0 0 0 0 0 0 0 0
0 0 0 0 0 0 0 0 0 0 0 0 0 0 0 0 0 0 0 0 0 0 0 0 0 0 0 0 0 0 0 0 0 0 0 0 0 0 0 0 0 0 0 0 0 0 0 0 0
0 0 0 0 0 0 0 0 0 0 0 0 0 0 0 0 0 0 0 0 0 0 0 0 0 0 0 0 0 0 0 0 0 0 0 0 0 0 0 0 0 0 0 0 0 0 0 0 0
0 0 0 0 0 0 0 0 0 0 0 0 0 0 0 0 0 0 0 0 0 0 0 0 0 0 0 0 0 0 0 0 0 0 0 0 0 0 0 0 0 0 0 0 0 0 0 0 0
0 0 0 0 0 0 0 0 0 0 0 0 0 0 0 0 0 0 0 0 0 0 0 0 0 0 0 0 0 0 0 0 0 0 0 0 0 0 0 0 0 0 0 0 0 0 0 0 0
0 0 0 0 0 0 0 0 0 0 0 0 0 0 0 0 0 0 0 0 0 0 0 0 0 0 0 0 0 0 0 0 0 0 0 0 0 0 0 0 0 0 0 0 0 0 0 0 0
0 0 0 0 0 0 0 0 0 0 0 0 0 0 0 0 0 0 0 0 0 0 0 0 0 0 0 0 0 0 0 0 0 0 0 0 0 0 0 0 0 0 0 0 0 0 0 0 0
Wind_Speed
7 4 2 4 5 3 2 3 2 0 0 0 1 3 5 3 2 3 1 3 5 6 5 4 5 6 7 7 7 7 8 8 8 7 7 7 7 7 7 7 7 6 7 7 7 8 8 8 8
3 2 4 5 4 2 4 3 2 3 2 1 2 3 4 2 2 3 1 2 5 6 5 4 5 6 6 7 7 7 7 7 7 7 7 6 6 7 7 7 6 6 6 6 7 7 8 8 7
2 2 4 4 3 5 4 3 3 2 0 1 1 2 2 2 1 2 2 4 5 5 5 4 5 6 6 6 7 7 6 6 6 6 6 6 6 6 7 6 6 6 6 6 6 6 7 7 7
2 4 4 3 4 4 3 2 2 1 1 1 2 2 2 1 2 2 3 5 5 5 4 4 6 6 6 6 6 6 6 5 6 6 6 6 6 6 6 6 5 6 6 6 6 6 6 6 6
3 4 3 1 4 3 2 2 2 1 0 1 2 2 1 3 2 4 5 5 6 4 3 4 5 6 6 6 6 6 5 5 5 5 5 6 6 6 5 5 5 5 5 5 5 5 5 5 5
3 3 3 4 5 3 2 2 1 0 0 0 1 2 1 1 3 3 4 4 5 5 4 3 4 5 5 5 5 5 5 5 4 4 5 5 5 5 5 5 5 5 5 5 5 5 5 5 5
3 3 3 4 3 4 3 1 2 2 2 2 2 2 2 1 0 2 4 4 4 5 4 3 3 3 4 4 4 4 4 4 4 4 4 5 5 5 5 5 5 4 4 5 4 4 5 4 4
3 3 2 3 4 4 2 1 1 2 2 1 2 4 3 3 2 3 4 4 4 4 4 3 2 2 2 2 3 3 3 3 4 4 5 5 4 4 5 4 4 4 4 4 4 4 4 4 4
3 2 4 4 4 3 1 1 1 1 1 1 0 2 2 5 5 5 3 3 3 3 2 2 2 2 2 2 2 2 3 3 4 4 5 5 2 2 3 3 4 3 3 3 3 3 5 4 4
3 4 7 3 3 2 1 1 1 1 1 1 2 2 3 5 5 5 4 3 2 2 2 2 2 2 1 1 2 1 2 2 2 2 3 2 2 2 3 4 4 3 3 3 3 3 4 3 2
3 6 4 2 2 2 1 1 0 2 2 3 3 2 3 4 4 4 4 3 3 3 2 2 2 2 2 1 1 1 1 1 2 2 3 3 2 2 2 2 2 2 3 2 2 2 1 1 1
3 3 3 2 1 1 2 2 1 2 5 3 3 4 4 4 4 4 4 3 2 2 2 1 2 2 2 1 1 1 1 1 1 1 3 3 2 1 1 1 1 1 1 1 1 1 1 1 1
5 4 2 2 1 1 1 3 3 4 5 2 1 2 3 4 3 2 2 2 2 2 1 1 2 2 2 2 2 2 1 2 2 1 2 2 2 2 1 1 1 1 1 1 0 0 1 1 1
3 2 3 3 3 3 3 4 3 7 3 1 1 1 2 2 2 1 0 1 1 2 1 1 1 1 1 2 2 2 2 1 1 1 2 2 2 2 2 1 1 1 0 0 0 0 0 0 0
1 1 4 4 5 4 1 6 7 6 2 2 2 2 2 1 1 1 2 2 1 1 1 1 2 1 1 1 2 2 2 2 1 1 2 2 2 2 2 2 1 1 0 0 1 1 1 1 1
1 1 4 5 4 3 4 10 6 4 4 4 3 2 2 2 1 1 1 1 0 0 1 1 1 1 1 1 1 1 1 2 1 1 1 1 1 2 1 1 1 1 1 0 1 1 1 1 1
1 3 6 5 3 3 6 9 5 2 5 5 4 3 3 2 1 1 0 1 1 1 1 1 1 2 2 1 1 1 2 2 1 1 1 1 1 2 1 1 1 1 1 0 0 1 1 1 1
5 5 5 5 3 4 6 9 7 3 4 5 4 4 3 3 3 1 0 0 0 1 1 1 1 2 1 1 1 1 1 1 1 1 0 1 1 1 1 1 1 2 1 0 0 1 0 1 0
3 3 6 6 3 4 7 10 9 5 3 4 4 3 3 3 2 1 0 1 2 2 1 0 1 1 1 1 1 1 1 1 0 0 0 1 1 1 1 1 1 1 1 2 2 1 1 1 1
4 5 6 5 2 3 5 9 7 4 4 5 5 4 4 2 1 1 1 2 1 1 1 0 1 1 1 1 1 1 1 1 1 0 0 0 0 0 1 2 2 2 1 2 2 2 1 0 1
6 7 6 5 4 2 3 7 5 3 2 2 2 3 2 2 2 1 0 0 1 1 1 1 1 1 1 1 1 1 1 1 1 0 0 1 1 0 0 2 2 2 2 3 3 2 3 2 0
7 5 4 4 2 4 2 5 6 4 3 4 3 2 2 2 2 1 1 1 1 1 1 1 1 1 1 2 2 3 2 2 1 1 1 1 1 1 0 1 2 2 2 2 2 2 2 3 2
5 3 4 4 3 4 3 4 8 2 4 4 4 3 2 1 1 1 1 1 1 1 1 1 1 1 0 1 2 3 2 1 0 0 0 1 1 1 1 1 1 1 2 2 2 2 2 2 2
1 2 2 1 1 5 7 6 7 4 5 2 1 2 2 1 1 1 1 0 1 1 1 1 1 1 1 0 1 2 2 1 1 1 1 1 1 1 1 1 1 2 2 2 2 3 3 3 2
1 2 2 3 2 7 3 5 8 4 3 3 3 3 2 1 1 0 1 1 1 1 1 1 1 1 1 1 0 1 2 2 3 2 2 1 1 2 2 2 2 2 2 2 2 2 3 3 3
3 4 5 4 5 5 1 6 6 2 3 2 1 1 1 1 1 1 1 1 1 1 1 1 1 1 1 1 1 1 0 1 1 2 2 2 2 3 2 2 2 2 2 2 2 2 3 3 3
2 4 3 3 2 3 4 5 5 2 3 3 1 0 1 2 2 2 1 1 1 1 1 2 1 1 1 1 1 1 1 1 1 1 1 2 2 2 2 2 2 2 2 2 2 2 3 3 3
2 2 2 3 3 5 4 4 4 3 4 3 2 2 3 2 1 1 1 1 1 2 1 1 1 1 1 1 1 1 1 1 1 1 1 1 2 2 2 2 2 2 2 2 2 2 2 3 3
1 1 2 2 3 5 4 6 4 3 2 3 4 3 2 2 2 1 1 1 1 1 1 1 1 1 0 0 1 1 1 1 1 1 2 2 2 1 2 2 2 3 3 3 3 3 3 4 4
4 4 5 4 5 4 4 7 2 1 1 2 3 2 2 2 1 1 1 1 1 1 2 1 1 1 1 1 1 1 1 1 1 2 3 2 2 1 2 2 2 3 3 3 4 4 4 4 5
Wind_Direction
344 352 53 57 58 58 229 244 237 269 16 285 60 96 104 95 117 148 140 112 114 133 145 147 134 126 124 121 118 114 110 108 104 102 105 106 104 103 100 99 99 99 102 103 101 100 98 94 90
342 6 54 63 98 170 245 237 221 229 206 175 50 75 84 73 66 111 120 129 124 134 140 147 127 124 123 120 122 117 113 109 106 105 103 105 108 107 105 98 98 99 100 105 103 102 97 95 93
343 51 77 84 146 193 211 214 202 236 293 126 67 62 99 136 133 158 175 131 120 130 138 142 126 125 121 119 119 118 117 114 107 103 100 101 105 105 102 101 95 93 95 98 102 103 99 93 89
61 53 63 92 217 228 210 223 190 135 3 28 106 81 74 38 175 166 130 120 120 127 135 141 126 124 120 119 118 116 117 116 111 104 95 96 104 107 105 101 101 93 87 91 91 98 98 95 90
64 83 87 240 240 240 227 239 185 148 175 339 96 122 109 358 49 108 118 118 123 123 128 137 126 124 121 117 118 121 119 115 115 109 101 98 98 102 103 98 95 99 89 91 90 88 91 91 92
67 84 127 221 237 239 251 252 159 292 217 345 104 133 169 21 75 103 108 111 116 121 120 127 119 117 119 120 117 115 115 114 114 112 109 103 97 95 98 95 93 93 95 88 94 92 91 88 88
118 121 186 212 227 246 245 229 176 207 233 232 169 139 169 303 193 120 107 104 104 109 112 112 113 111 110 114 117 116 112 107 110 109 105 97 93 89 89 90 93 92 96 89 90 95 89 85 85
135 124 199 215 212 238 232 192 192 195 222 261 135 161 207 220 171 113 101 98 98 102 110 114 109 105 116 130 121 116 110 106 107 102 91 83 83 83 81 82 89 94 99 95 86 96 92 81 71
101 113 217 215 201 219 201 209 298 358 108 32 59 184 189 139 126 107 93 82 89 93 100 115 118 107 107 117 114 117 110 102 99 101 92 82 67 67 73 72 79 84 88 93 87 91 86 71 63
115 189 224 215 187 175 146 201 236 21 11 351 358 14 94 123 135 138 141 150 144 144 141 146 146 142 128 127 115 126 132 125 113 109 102 92 80 71 69 68 73 67 64 64 67 65 81 70 54
166 207 216 230 222 190 193 263 285 149 257 224 204 185 144 133 142 160 175 175 177 168 144 161 161 154 146 140 136 137 133 125 120 120 112 103 87 74 66 65 55 43 48 39 28 23 36 62 65
199 241 219 226 215 198 214 222 256 219 227 223 194 166 156 151 169 188 188 184 165 151 172 166 146 148 157 151 154 150 136 131 127 133 122 116 107 86 73 73 75 49 38 38 24 14 7 35 70
228 244 241 224 190 214 211 234 231 256 255 263 64 114 163 180 188 201 185 172 158 166 196 174 149 149 158 156 154 140 141 138 144 139 127 127 129 134 132 124 103 79 49 63 35 31 19 16 24
221 221 252 249 239 235 225 265 238 255 242 207 169 198 195 180 185 168 140 171 190 187 194 181 154 156 152 154 153 150 146 132 131 133 136 137 134 146 152 148 146 121 56 291 172 138 72 349 7
222 294 296 252 226 223 200 281 240 238 196 201 223 223 233 217 182 178 196 192 207 205 178 167 173 137 144 157 155 142 140 135 138 145 146 142 143 157 164 159 166 172 138 36 101 104 67 37 29
331 279 269 263 205 196 179 258 261 224 191 219 229 239 243 254 209 190 185 197 220 184 169 174 160 144 151 137 147 143 134 127 142 148 148 149 151 155 161 160 178 173 109 88 124 118 78 35 15
271 238 246 271 217 182 190 246 269 223 190 222 231 226 226 245 276 272 216 187 186 183 177 164 162 163 173 166 154 142 132 129 135 124 139 165 152 151 163 174 179 151 116 129 171 94 114 85 2
220 224 238 240 227 184 212 245 266 246 210 229 235 228 224 228 248 250 267 43 92 124 148 159 159 162 159 150 118 110 112 111 112 138 154 167 165 147 141 161 170 149 137 152 169 116 81 121 74
222 229 256 258 238 211 232 252 268 267 245 253 248 231 232 238 252 236 135 61 52 37 43 117 142 144 133 137 157 165 180 181 165 184 185 182 169 158 153 158 168 158 173 194 188 146 120 55 64
237 257 266 280 256 233 254 268 274 265 238 234 231 233 237 257 305 331 38 52 50 32 3 5 179 173 176 177 192 200 181 194 192 315 23 28 351 206 176 176 190 191 186 188 187 142 121 80 79
244 234 245 259 310 292 289 293 277 272 241 255 234 221 225 218 224 246 348 10 14 332 302 312 273 207 191 165 123 79 68 67 75 316 299 321 300 245 209 207 199 201 192 197 196 181 161 171 210
256 245 242 253 265 275 228 279 281 267 284 265 249 241 235 236 217 223 237 287 271 281 297 295 284 242 207 171 163 162 175 196 219 220 258 303 304 303 286 230 210 200 201 200 201 197 188 167 180
241 250 244 244 228 270 247 231 280 287 272 262 246 241 247 236 203 222 230 232 265 309 327 321 344 321 279 189 180 182 195 214 198 161 217 277 292 303 306 245 216 215 216 208 202 202 192 183 180
246 337 318 314 139 256 231 207 274 252 244 265 262 245 247 235 220 257 279 312 331 349 11 3 18 5 358 334 183 186 193 191 178 204 228 257 291 301 283 259 238 229 228 222 215 206 199 201 191
19 90 2 328 277 249 208 202 249 253 256 244 242 239 237 210 201 288 330 333 309 322 344 355 22 3 359 344 282 216 205 193 197 208 217 235 259 273 258 253 241 235 237 231 219 215 213 205 202
233 181 180 214 239 273 255 226 249 254 277 285 244 215 222 230 223 236 243 236 240 264 286 300 294 321 335 299 296 298 279 208 218 222 223 225 237 250 243 242 244 248 238 229 214 219 228 214 215
195 225 218 191 261 273 260 268 289 268 303 325 338 328 246 248 244 244 257 258 250 248 255 244 244 279 295 286 314 325 332 321 268 247 236 237 250 259 233 230 235 242 241 232 220 229 232 227 222
222 185 124 165 204 252 271 253 252 286 292 298 292 273 278 284 283 280 263 252 252 252 261 257 239 241 280 277 280 310 329 330 332 319 285 275 261 263 236 233 235 244 244 234 228 236 237 233 236
202 194 185 191 200 203 251 261 227 218 248 270 272 271 265 266 257 260 278 274 278 321 306 274 251 259 299 290 319 344 342 341 337 316 296 284 284 266 242 231 226 233 242 240 233 237 233 234 241
196 198 178 192 238 230 231 258 281 245 318 322 310 312 316 316 308 313 329 2 12 0 351 331 318 316 329 339 355 335 342 340 325 312 310 309 294 281 268 244 234 234 238 239 236 240 237 234 238